Burbank, CA

4:52 PM PDT on April 25, 2017 (GMT -0700)
Burbank-Glendale-Pasadena

Weather History for KBUR - May, 2012

Change the Weather History Date:

Sunday, May 27, 2012

  Actual Average Record
Temperature  
Mean Temperature 63 °F 66 °F  
Max Temperature 76 °F 77 °F 100 °F (1973)
Min Temperature 50 °F 56 °F 46 °F (1946)
Degree Days  
Heating Degree Days 2 1  
Month to date heating degree days 36 53  
Since 1 July heating degree days 1499 1550  
Cooling Degree Days 0 3  
Month to date cooling degree days 60 58  
Year to date cooling degree days 107 109  
Growing Degree Days 12 (Base 50)    
Moisture  
Dew Point 47 °F    
Average Humidity 55    
Maximum Humidity 80    
Minimum Humidity 29    
Precipitation  
Precipitation 0.00 in 0.01 in 0.21 in (1947)
Month to date precipitation T 0.33  
Year to date precipitation 5.48 12.42  
Since 1 July precipitation 8.77  
Sea Level Pressure  
Sea Level Pressure 29.97 in    
Wind  
Wind Speed 5 mph (SSE)    
Max Wind Speed 12 mph    
Max Gust Speed 16 mph    
Visibility 10 miles    
Events      
T = Trace of Precipitation, MM = Missing Value Source: NWS Daily Summary

Daily Weather History Graph

Daily Weather History Graph

Search for Another Location

Airport or City:

Trip Planner

Search our weather history database for the weather conditions in past years. The results will help you decide how hot, cold, wet, or windy it might be!

Date:

Astronomy

May. 27, 2012 Rise Set
Actual Time 5:44 AM PDT 7:57 PM PDT
Civil Twilight 5:15 AM PDT 8:25 PM PDT
Nautical Twilight 4:40 AM PDT 9:00 PM PDT
Astronomical Twilight 4:03 AM PDT 9:38 PM PDT
Moon 11:44 AM PDT (5/27) 12:15 AM PDT (5/27)
Length of Visible Light 15h 10m
Length of Day
14h 13m
Waxing Crescent, 39% of the Moon is Illuminated
May 27
Waxing Crescent
May 28
First Quarter
Jun 4
Full
Jun 11
Last Quarter
Jun 19
New

Hourly Weather History & Observations

Time (PDT) Temp. Dew Point Humidity Pressure Visibility Wind Dir Wind Speed Gust Speed Precip Events Conditions
12:53 AM 55.0 °F 46.9 °F 74% 30.01 in 10.0 mi SE 4.6 mph - N/A   Clear
1:53 AM 55.0 °F 46.9 °F 74% 30.00 in 10.0 mi Calm Calm - N/A   Clear
2:53 AM 54.0 °F 46.0 °F 75% 30.00 in 10.0 mi South 3.5 mph - N/A   Clear
3:53 AM 52.0 °F 45.0 °F 77% 30.00 in 10.0 mi Calm Calm - N/A   Clear
4:53 AM 51.1 °F 44.1 °F 77% 29.99 in 10.0 mi NW 3.5 mph - N/A   Clear
5:53 AM 50.0 °F 44.1 °F 80% 30.00 in 10.0 mi Calm Calm - N/A   Clear
6:53 AM 52.0 °F 45.0 °F 77% 30.01 in 10.0 mi SSE 3.5 mph - N/A   Clear
7:53 AM 55.0 °F 45.0 °F 69% 30.02 in 10.0 mi Calm Calm - N/A   Clear
8:53 AM 57.9 °F 46.9 °F 67% 30.03 in 10.0 mi SE 5.8 mph - N/A   Partly Cloudy
9:53 AM 61.0 °F 46.9 °F 60% 30.01 in 10.0 mi East 4.6 mph - N/A   Clear
10:53 AM 64.0 °F 46.9 °F 54% 30.01 in 10.0 mi SSE 8.1 mph - N/A   Clear
11:53 AM 68.0 °F 48.0 °F 49% 30.01 in 10.0 mi Variable 5.8 mph - N/A   Clear
12:53 PM 70.0 °F 48.9 °F 47% 29.99 in 10.0 mi SE 6.9 mph - N/A   Clear
1:53 PM 72.0 °F 51.1 °F 48% 29.97 in 10.0 mi SE 9.2 mph - N/A   Clear
2:53 PM 73.9 °F 50.0 °F 43% 29.95 in 10.0 mi South 8.1 mph - N/A   Clear
3:53 PM 73.9 °F 51.1 °F 45% 29.94 in 10.0 mi Variable 3.5 mph - N/A   Clear
4:53 PM 73.9 °F 51.1 °F 45% 29.93 in 10.0 mi South 8.1 mph - N/A   Clear
5:53 PM 73.9 °F 50.0 °F 43% 29.92 in 10.0 mi South 4.6 mph - N/A   Clear
6:53 PM 73.9 °F 50.0 °F 43% 29.91 in 10.0 mi South 3.5 mph - N/A   Clear
7:53 PM 75.0 °F 41.0 °F 29% 29.92 in 10.0 mi West 6.9 mph - N/A   Clear
8:53 PM 72.0 °F 42.1 °F 34% 29.92 in 10.0 mi West 5.8 mph - N/A   Clear
9:53 PM 69.1 °F 43.0 °F 39% 29.93 in 10.0 mi NNW 3.5 mph - N/A   Clear
10:53 PM 64.0 °F 50.0 °F 60% 29.94 in 10.0 mi East 6.9 mph - N/A   Clear
11:53 PM 62.1 °F 51.1 °F 67% 29.93 in 10.0 mi ESE 8.1 mph - N/A   Clear